Total_Precipitation_Accumulation
0.55 0.44 0.53 0.61 0.56 0.59 0.82 0.85 0.76 0.42 0.32 0.33 0.33 0.35 0.34 0.33 0.31 0.26 0.29 0.33 0.39 0.45 0.49 0.59 0.74 0.92 1.14 1.17 1.05 1.05 1.14 1.28 1.43 1.48 1.43 1.41 1.52 1.68 1.77 1.80 1.80 1.80 1.82 1.76
0.54 0.37 0.42 0.46 0.40 0.42 0.49 0.48 0.46 0.33 0.35 0.33 0.31 0.33 0.35 0.37 0.34 0.30 0.32 0.36 0.41 0.46 0.48 0.56 0.74 0.92 1.10 1.21 1.21 1.19 1.29 1.36 1.46 1.58 1.56 1.52 1.55 1.68 1.83 1.88 1.92 1.90 1.83 1.79
0.81 0.45 0.69 0.72 0.44 0.41 0.43 0.41 0.41 0.43 0.38 0.31 0.32 0.35 0.40 0.42 0.41 0.41 0.38 0.39 0.43 0.47 0.51 0.58 0.79 0.97 1.08 1.16 1.25 1.34 1.41 1.42 1.41 1.49 1.55 1.53 1.50 1.59 1.75 1.82 1.81 1.82 1.79 1.74
1.18 0.88 1.26 0.66 0.33 0.32 0.35 0.39 0.42 0.44 0.38 0.35 0.36 0.38 0.41 0.43 0.45 0.45 0.44 0.45 0.47 0.51 0.53 0.59 0.73 0.86 0.93 1.05 1.15 1.27 1.37 1.43 1.42 1.42 1.48 1.55 1.53 1.48 1.53 1.59 1.67 1.66 1.60 1.56
1.61 1.17 0.70 0.32 0.27 0.36 0.42 0.49 0.48 0.44 0.38 0.34 0.31 0.30 0.36 0.37 0.39 0.42 0.45 0.48 0.48 0.49 0.56 0.61 0.69 0.77 0.82 0.92 1.05 1.14 1.21 1.29 1.35 1.34 1.35 1.40 1.46 1.40 1.35 1.37 1.42 1.47 1.46 1.41
1.78 1.32 0.69 0.42 0.28 0.29 0.38 0.57 0.47 0.41 0.40 0.38 0.39 0.56 0.52 0.43 0.37 0.36 0.37 0.41 0.44 0.44 0.51 0.60 0.71 0.75 0.78 0.85 0.93 1.06 1.09 1.09 1.12 1.17 1.22 1.20 1.19 1.21 1.17 1.21 1.26 1.28 1.34 1.36
1.48 1.19 0.54 0.31 0.21 0.25 0.60 0.77 0.49 0.44 0.44 0.45 0.57 0.69 0.57 0.45 0.40 0.36 0.35 0.35 0.37 0.38 0.46 0.57 0.69 0.73 0.76 0.82 0.88 0.97 1.01 0.97 0.96 1.02 1.08 1.09 1.11 1.11 1.08 1.08 1.13 1.20 1.25 1.28
1.12 1.31 0.71 0.31 0.29 0.54 0.76 0.50 0.45 0.44 0.42 0.45 0.43 0.39 0.38 0.37 0.36 0.34 0.33 0.32 0.33 0.36 0.43 0.52 0.63 0.69 0.73 0.82 0.87 0.93 0.97 0.94 0.92 0.96 1.01 1.01 1.05 1.12 1.11 1.10 1.16 1.17 1.21 1.29
0.87 0.81 0.55 0.45 0.51 0.53 0.46 0.43 0.40 0.43 0.41 0.42 0.39 0.34 0.33 0.32 0.32 0.32 0.31 0.32 0.34 0.38 0.43 0.46 0.52 0.59 0.66 0.73 0.78 0.85 0.92 0.92 0.92 0.96 0.98 1.01 1.05 1.11 1.19 1.19 1.21 1.23 1.20 1.24
0.60 0.49 0.45 0.44 0.43 0.40 0.36 0.37 0.36 0.37 0.40 0.40 0.38 0.32 0.29 0.28 0.28 0.28 0.28 0.31 0.35 0.37 0.40 0.44 0.45 0.50 0.57 0.63 0.69 0.78 0.86 0.89 0.91 0.94 0.99 1.04 1.05 1.09 1.18 1.26 1.32 1.33 1.27 1.23
0.47 0.36 0.34 0.37 0.37 0.34 0.30 0.26 0.25 0.24 0.26 0.30 0.30 0.29 0.28 0.27 0.28 0.30 0.31 0.31 0.31 0.34 0.38 0.41 0.42 0.46 0.49 0.53 0.60 0.70 0.75 0.80 0.88 0.92 0.96 1.00 1.01 1.05 1.11 1.13 1.32 1.55 1.45 1.39
0.43 0.31 0.31 0.31 0.27 0.25 0.25 0.23 0.23 0.23 0.21 0.20 0.23 0.26 0.25 0.27 0.29 0.31 0.32 0.31 0.29 0.29 0.31 0.34 0.36 0.42 0.46 0.47 0.52 0.60 0.68 0.71 0.80 0.88 0.94 0.96 0.97 1.05 1.11 1.11 1.15 1.18 1.21 1.30
0.29 0.24 0.22 0.21 0.18 0.17 0.19 0.21 0.20 0.20 0.19 0.19 0.20 0.22 0.23 0.24 0.26 0.26 0.27 0.27 0.28 0.28 0.27 0.29 0.31 0.36 0.44 0.47 0.47 0.53 0.63 0.71 0.77 0.81 0.87 0.94 0.95 1.00 1.05 1.07 1.06 1.05 1.07 1.12
0.19 0.20 0.22 0.18 0.17 0.17 0.18 0.18 0.18 0.17 0.16 0.17 0.18 0.18 0.20 0.21 0.22 0.22 0.24 0.26 0.24 0.23 0.23 0.24 0.26 0.31 0.38 0.43 0.45 0.48 0.57 0.68 0.74 0.77 0.84 0.90 0.95 1.00 1.03 1.06 1.06 1.04 1.06 1.13
0.16 0.19 0.20 0.18 0.17 0.17 0.16 0.16 0.16 0.16 0.14 0.14 0.14 0.16 0.18 0.19 0.21 0.22 0.22 0.21 0.19 0.19 0.20 0.21 0.23 0.28 0.33 0.37 0.42 0.46 0.53 0.64 0.73 0.78 0.82 0.87 0.90 0.95 1.01 1.01 0.98 0.95 0.98 1.10
0.17 0.17 0.16 0.16 0.16 0.16 0.15 0.16 0.17 0.16 0.14 0.13 0.14 0.16 0.19 0.19 0.20 0.21 0.19 0.18 0.17 0.17 0.19 0.21 0.24 0.27 0.30 0.34 0.40 0.45 0.52 0.67 0.78 0.82 0.83 0.87 0.89 0.93 0.98 0.98 0.95 0.93 0.98 1.05
0.21 0.18 0.16 0.15 0.14 0.15 0.15 0.17 0.17 0.17 0.15 0.14 0.16 0.18 0.20 0.20 0.20 0.20 0.19 0.18 0.18 0.18 0.19 0.22 0.25 0.26 0.28 0.32 0.39 0.44 0.51 0.62 0.74 0.79 0.81 0.85 0.91 0.95 0.97 1.01 1.01 0.98 0.97 1.01
0.22 0.22 0.20 0.19 0.18 0.18 0.17 0.16 0.16 0.17 0.16 0.16 0.18 0.20 0.22 0.23 0.22 0.22 0.21 0.20 0.19 0.19 0.20 0.21 0.26 0.28 0.28 0.32 0.38 0.43 0.50 0.59 0.69 0.78 0.82 0.86 0.94 0.97 0.98 1.00 0.99 1.00 0.95 0.95
0.18 0.18 0.19 0.19 0.20 0.21 0.19 0.16 0.15 0.16 0.17 0.18 0.20 0.22 0.24 0.25 0.25 0.25 0.23 0.22 0.21 0.21 0.23 0.24 0.29 0.28 0.29 0.34 0.44 0.49 0.56 0.63 0.69 0.72 0.76 0.87 0.92 0.90 0.93 0.96 0.99 0.98 0.95 0.95
0.18 0.18 0.19 0.20 0.21 0.22 0.20 0.18 0.17 0.17 0.18 0.20 0.21 0.23 0.25 0.26 0.26 0.27 0.26 0.24 0.25 0.26 0.25 0.28 0.29 0.29 0.32 0.39 0.53 0.60 0.63 0.67 0.72 0.75 0.77 0.84 0.90 0.91 0.93 0.96 0.98 0.98 0.95 0.96
0.21 0.21 0.21 0.21 0.20 0.19 0.20 0.19 0.19 0.20 0.19 0.20 0.23 0.27 0.27 0.28 0.28 0.27 0.27 0.27 0.28 0.28 0.28 0.29 0.30 0.37 0.46 0.57 0.64 0.63 0.64 0.71 0.78 0.82 0.85 0.88 0.91 0.93 0.95 0.97 0.99 1.01 1.02 1.02
0.24 0.23 0.24 0.23 0.21 0.20 0.19 0.19 0.19 0.20 0.21 0.22 0.24 0.27 0.28 0.30 0.29 0.28 0.28 0.29 0.30 0.34 0.34 0.32 0.36 0.50 0.62 0.69 0.65 0.64 0.66 0.73 0.80 0.85 0.90 0.91 0.97 1.00 0.99 0.99 1.04 1.04 1.06 1.06
0.27 0.26 0.26 0.25 0.24 0.22 0.20 0.19 0.20 0.22 0.24 0.25 0.27 0.29 0.31 0.32 0.32 0.33 0.34 0.31 0.32 0.39 0.40 0.40 0.50 0.62 0.69 0.68 0.62 0.63 0.69 0.75 0.82 0.90 0.95 0.98 1.01 1.05 1.08 1.07 1.08 1.09 1.09 1.09
0.28 0.27 0.26 0.26 0.25 0.24 0.23 0.23 0.22 0.23 0.24 0.24 0.27 0.29 0.33 0.35 0.33 0.32 0.36 0.39 0.41 0.45 0.46 0.51 0.60 0.66 0.69 0.66 0.64 0.68 0.76 0.84 0.93 0.99 1.03 1.05 1.06 1.08 1.12 1.15 1.16 1.12 1.10 1.10
0.32 0.31 0.29 0.29 0.29 0.29 0.29 0.28 0.26 0.25 0.25 0.25 0.26 0.29 0.33 0.37 0.40 0.39 0.40 0.45 0.49 0.51 0.53 0.57 0.61 0.65 0.65 0.66 0.71 0.79 0.87 0.96 1.08 1.16 1.16 1.13 1.10 1.11 1.14 1.18 1.20 1.18 1.15 1.13
0.38 0.37 0.36 0.36 0.37 0.37 0.35 0.33 0.32 0.30 0.31 0.31 0.32 0.34 0.36 0.40 0.43 0.44 0.46 0.50 0.54 0.56 0.57 0.60 0.63 0.68 0.72 0.76 0.81 0.86 0.91 0.94 1.01 1.07 1.09 1.11 1.10 1.12 1.15 1.19 1.19 1.19 1.18 1.16
0.40 0.39 0.37 0.35 0.37 0.39 0.39 0.40 0.41 0.41 0.41 0.43 0.45 0.45 0.45 0.47 0.49 0.50 0.52 0.56 0.60 0.62 0.62 0.66 0.70 0.74 0.78 0.84 0.88 0.91 0.93 0.95 0.99 1.08 1.12 1.13 1.13 1.16 1.18 1.20 1.21 1.20 1.18 1.16